Total_Precipitation_Accumulation
1.42 1.48 1.40 1.42 1.48 1.50 1.48 1.55 1.62 1.67 1.76 1.74 1.75 1.76 1.74 1.78 1.85 1.94 2.05 2.18 2.18 2.22 2.12 2.15 2.28 2.35 2.53 2.55 2.52 2.50 2.50 2.43 2.29 2.15 1.89 1.68 1.65 1.76 1.84 1.72 1.74 1.80 1.73
1.50 1.44 1.39 1.51 1.57 1.66 1.66 1.59 1.61 1.62 1.59 1.60 1.70 1.63 1.61 1.64 1.71 1.83 1.92 1.94 1.97 1.93 1.85 1.91 2.03 2.10 2.24 2.35 2.45 2.36 2.39 2.38 2.34 2.29 2.06 1.85 1.76 1.77 1.86 1.82 1.70 1.67 1.68
1.50 1.53 1.44 1.38 1.47 1.56 1.64 1.60 1.56 1.56 1.56 1.60 1.69 1.73 1.62 1.52 1.59 1.66 1.76 1.78 1.75 1.64 1.61 1.69 1.78 1.88 1.97 2.08 2.16 2.23 2.27 2.27 2.36 2.32 2.12 1.94 1.79 1.73 1.80 1.74 1.68 1.75 1.64
1.53 1.52 1.51 1.49 1.57 1.55 1.52 1.47 1.46 1.46 1.41 1.41 1.51 1.58 1.60 1.53 1.46 1.44 1.44 1.61 1.61 1.52 1.41 1.40 1.44 1.49 1.63 1.77 1.86 1.99 2.14 2.29 2.37 2.39 2.23 1.99 1.82 1.77 1.86 1.91 1.89 1.79 1.77
1.56 1.55 1.49 1.48 1.50 1.53 1.51 1.36 1.30 1.23 1.23 1.25 1.39 1.54 1.58 1.54 1.54 1.52 1.41 1.44 1.50 1.53 1.48 1.36 1.26 1.28 1.44 1.55 1.62 1.84 2.03 2.17 2.30 2.36 2.26 2.09 1.93 1.86 1.82 1.83 1.92 2.00 2.00
1.33 1.39 1.49 1.50 1.43 1.38 1.37 1.34 1.23 1.15 1.13 1.11 1.18 1.31 1.44 1.40 1.62 1.67 1.54 1.39 1.39 1.41 1.41 1.40 1.40 1.37 1.27 1.26 1.36 1.53 1.74 1.90 2.05 2.16 2.18 2.01 1.83 1.81 1.88 1.91 1.93 2.00 2.05
1.25 1.29 1.35 1.38 1.31 1.27 1.20 1.17 1.12 1.06 1.11 1.09 1.15 1.26 1.38 1.57 1.69 1.52 1.58 1.50 1.43 1.42 1.37 1.37 1.39 1.37 1.46 1.32 1.29 1.32 1.32 1.47 1.72 1.92 1.93 1.83 1.88 1.83 1.84 1.82 1.81 1.81 1.85
1.13 1.18 1.15 1.16 1.16 1.19 1.07 1.05 1.03 1.05 1.10 1.11 1.17 1.24 1.31 1.53 1.64 1.47 1.66 1.66 1.62 1.55 1.48 1.51 1.55 1.56 1.50 1.63 1.59 1.47 1.36 1.31 1.41 1.34 1.40 1.69 1.85 1.92 1.96 1.97 2.01 1.92 1.85
0.95 1.01 1.04 1.03 1.05 1.08 1.04 1.13 1.14 1.10 1.11 1.11 1.11 1.11 1.13 1.24 1.40 1.33 1.48 1.56 1.65 1.64 1.51 1.48 1.53 1.53 1.80 1.92 1.74 1.63 1.51 1.42 1.60 1.62 1.59 1.67 1.80 1.84 1.85 1.92 1.99 1.95 1.87
0.84 0.89 0.97 1.00 1.03 1.10 1.26 1.36 1.36 1.28 1.17 1.09 1.04 1.00 1.00 1.03 1.27 1.18 1.29 1.33 1.48 1.62 1.59 1.53 1.71 1.65 1.73 1.74 1.62 1.75 1.66 1.49 1.43 1.39 1.38 1.43 1.48 1.58 1.68 1.66 1.80 1.86 1.79
0.65 0.76 0.90 1.03 1.07 1.21 1.39 1.42 1.35 1.28 1.15 1.04 1.00 0.98 0.96 1.03 1.27 1.26 1.33 1.33 1.41 1.49 1.51 1.50 1.48 1.68 1.56 1.56 1.59 1.63 1.76 1.72 1.67 1.68 1.57 1.47 1.41 1.42 1.43 1.48 1.62 1.73 1.75
0.59 0.64 0.74 0.91 1.04 1.21 1.38 1.36 1.33 1.30 1.20 1.07 1.04 1.03 1.04 1.15 1.22 1.27 1.31 1.37 1.43 1.42 1.35 1.22 1.24 1.42 1.33 1.34 1.34 1.44 1.67 1.71 1.63 1.69 1.64 1.52 1.41 1.34 1.32 1.38 1.52 1.60 1.59
0.53 0.54 0.60 0.71 0.85 1.04 1.18 1.23 1.24 1.25 1.20 1.12 1.05 1.02 1.04 1.11 1.25 1.44 1.34 1.25 1.22 1.20 1.18 1.23 1.17 1.15 1.15 1.09 1.15 1.31 1.42 1.57 1.65 1.65 1.52 1.41 1.37 1.36 1.38 1.39 1.42 1.53 1.56
0.49 0.52 0.55 0.58 0.63 0.74 0.85 0.99 1.11 1.11 1.07 1.06 1.05 1.04 1.05 1.07 1.07 1.20 1.26 1.18 1.10 1.05 1.03 0.99 1.00 1.01 1.01 1.00 1.01 1.05 1.14 1.42 1.65 1.59 1.47 1.41 1.43 1.47 1.53 1.55 1.52 1.50 1.57
0.50 0.56 0.59 0.62 0.65 0.67 0.70 0.78 0.92 0.94 1.02 1.08 1.06 1.07 1.03 1.00 1.02 1.17 1.19 1.15 1.17 1.19 1.21 1.11 1.06 1.00 0.98 0.97 0.98 1.05 1.19 1.35 1.53 1.47 1.49 1.46 1.49 1.58 1.60 1.62 1.70 1.68 1.63
0.48 0.49 0.51 0.55 0.61 0.64 0.67 0.72 0.85 0.90 0.96 0.95 0.95 0.98 0.89 0.92 1.02 1.02 1.03 1.06 1.13 1.28 1.33 1.24 1.25 1.21 1.16 1.13 1.09 1.07 1.11 1.21 1.31 1.41 1.46 1.49 1.52 1.57 1.61 1.62 1.69 1.72 1.69
0.49 0.49 0.49 0.49 0.55 0.62 0.65 0.72 0.77 0.79 0.80 0.78 0.80 0.87 0.84 0.79 0.78 0.79 0.88 0.99 1.08 1.20 1.20 1.19 1.23 1.21 1.17 1.15 1.13 1.11 1.12 1.15 1.23 1.34 1.49 1.58 1.61 1.65 1.71 1.75 1.74 1.74 1.68
0.54 0.58 0.58 0.57 0.60 0.62 0.69 0.75 0.75 0.77 0.74 0.65 0.65 0.72 0.76 0.77 0.75 0.74 0.77 0.83 0.86 0.95 1.02 1.11 1.15 1.19 1.18 1.17 1.13 1.10 1.10 1.12 1.18 1.25 1.37 1.50 1.66 1.79 1.82 1.84 1.87 1.88 1.84
0.54 0.57 0.60 0.63 0.64 0.66 0.71 0.79 0.82 0.79 0.73 0.68 0.63 0.66 0.75 0.79 0.78 0.81 0.80 0.72 0.71 0.76 0.83 0.94 1.02 1.08 1.08 1.10 1.14 1.17 1.17 1.18 1.18 1.22 1.26 1.32 1.44 1.63 1.77 1.83 1.93 2.10 2.09
0.51 0.61 0.63 0.64 0.68 0.71 0.72 0.74 0.75 0.78 0.77 0.73 0.69 0.66 0.72 0.76 0.72 0.70 0.72 0.74 0.78 0.81 0.82 0.88 0.94 1.00 1.06 1.10 1.14 1.15 1.15 1.15 1.17 1.21 1.24 1.28 1.35 1.45 1.56 1.66 1.79 1.95 2.03
0.55 0.58 0.63 0.62 0.62 0.67 0.69 0.69 0.70 0.70 0.71 0.68 0.66 0.68 0.74 0.75 0.76 0.73 0.74 0.76 0.79 0.82 0.83 0.84 0.86 0.92 0.98 1.08 1.22 1.28 1.24 1.21 1.21 1.25 1.32 1.36 1.39 1.45 1.47 1.55 1.64 1.75 1.86
0.60 0.60 0.57 0.57 0.60 0.63 0.67 0.67 0.67 0.69 0.69 0.66 0.63 0.64 0.73 0.72 0.74 0.73 0.72 0.70 0.70 0.75 0.80 0.85 0.81 0.79 0.84 0.94 1.10 1.29 1.35 1.28 1.23 1.28 1.37 1.42 1.45 1.48 1.51 1.56 1.64 1.74 1.79
0.56 0.60 0.62 0.63 0.64 0.68 0.71 0.69 0.69 0.68 0.71 0.70 0.70 0.69 0.69 0.68 0.70 0.71 0.71 0.71 0.70 0.70 0.74 0.78 0.78 0.77 0.78 0.83 0.95 1.12 1.23 1.31 1.37 1.42 1.47 1.50 1.49 1.51 1.56 1.58 1.59 1.69 1.75
0.52 0.51 0.56 0.62 0.67 0.72 0.74 0.74 0.75 0.72 0.73 0.74 0.73 0.73 0.73 0.73 0.71 0.70 0.72 0.74 0.75 0.75 0.76 0.77 0.78 0.78 0.82 0.84 0.85 0.92 1.00 1.09 1.18 1.27 1.38 1.49 1.51 1.51 1.56 1.58 1.58 1.61 1.70
0.52 0.52 0.56 0.62 0.65 0.67 0.70 0.75 0.84 0.84 0.82 0.78 0.75 0.75 0.74 0.74 0.76 0.74 0.75 0.78 0.81 0.82 0.79 0.76 0.76 0.78 0.82 0.85 0.85 0.89 1.11 1.19 1.17 1.19 1.26 1.40 1.47 1.50 1.57 1.64 1.69 1.73 1.75
0.53 0.53 0.55 0.60 0.63 0.64 0.68 0.75 0.81 0.84 0.84 0.82 0.80 0.81 0.83 0.80 0.79 0.81 0.80 0.83 0.86 0.87 0.88 0.88 0.85 0.84 0.86 0.88 0.91 1.02 1.15 1.11 1.12 1.24 1.27 1.32 1.42 1.45 1.53 1.67 1.72 1.80 1.86